Find Tachys

NORAD ID: 33314 Int'l Des: 2008-040 Owner: REYE Country: D operational
LEOCIRCULARRETROGRADESSO

Aktuelle Ansicht

3D-Globus wird geladen...

Über Tachys

Beschreibung wird geladen...

Nächste Überflüge

Passes for default location (London). Set your location on the main map for personalized predictions.

Höhenverlauf

Loading altitude history...

Zweizeiliger Elementsatz

1 33314U 08040C 26149.50923324 .00001776 00000-0 13427-3 0 9997
2 33314 97.4089 178.2585 0026246 242.6241 117.2314 15.03319983962851
Epoch: 29. Mai 2026 • Age: 16 hours

Aktueller Status

Höhe 586.0 km
Geschwindigkeit 7.56 km/s
Subsatellitenpunkt 64.85°N, 152.12°W
Startdatum 29. Aug. 2008
Alter 17.7 years
Typ other

Technische Details

Klassifizierung Payload
Masse 152.00 kg
Trockenmasse 140.00 kg
Gesamtmasse 152.00 kg
Länge 1.00 m
Durchmesser 0.80 m
Spannweite 1.00 m
Form Hept Cyl
Hersteller SSTL
Bus-Typ SSTL-150
Phasenstatus In Orbit
Besitzer/Staat REYE/D

Most Searched